STARLINK-33807, 63518

Orbit data source: Space-Track

STARLINK-33807, 63518 is a payload satellite owned by SpaceX/Seattle (US) in LEO that was launched on Mon, 07 Apr 2025 UTC via an FALCON 9 launch vehicle from the Air Force Western Test Range (AFWTR). Payload-class satellites include a variety of spacecraft equipped with specific instruments for various scientific and technological missions. These include communications satellites like Starlink; space stations such as the ISS; scientific satellites like the Hubble; Earth observation satellites from companies like Planet Labs, Umbra, and HawkEye 360; GPS; miniature CubeSats for education and research; and military/defense satellites.

Loading next visibility...
Identifier
63518, 2025-071AB
Orbit
LEO
Last TLE update
4 hours ago
Origin
Manufacturer
SpaceX/Seattle
Mission
Operational Commercial Communications
Bus & Motor
STARLINK V2MO, Unknown motor
Mass
575 kg wet, ~530 kg dry
Launch date (UTC)
2025-04-07 (1 month ago)
Launch vehicle
FALCON 9
Launch site
Air Force Western Test Range (AFWTR)
Object type
Payload
Rocket body
Debris
Shape & HBR
Box + 1 Pan, 29 m
Radar Cross Section
41.120 m², Large (>1 m²)

Expand to show TLE details & history

TLE from 4 hours ago
0 STARLINK-33807
1 63518U 25071AB  25129.22080858 -.00502527  00000-0 -81158-2 0  9998
2 63518  53.1596 116.9995 0001349  46.0848 314.0275 15.54033246  6114
Epoch: 2025-05-09T05:17Z
Definitive object data (Epoch: 2025-05-09T05:17:57.861Z)
Latitude
0.00004°
Longitude
170.22837°
Altitude
405.237 km
Speed
7.669 km/s
True Right ascension
07h 47m 59s
True Declination
0° 00' 00"
Sunlit
Object was in daylight at TLE epoch
Visualization TLE readout
Latitude
9.93881°
Longitude
-18.03637°
Altitude
406.075 km
Speed
7.669 km/s
Apparent Right ascension
22h 15m 07s
Apparent Declination
-40° 09' 22"
Sunlit
Object is in full shadow
Visualization observer readout
Local Sidereal Time
17:15:31
Azimuth
130.145° SE
Elevation
-15.134°
Doppler factor
1
Orbital elements
Apogee altitude
406.138 km
Perigee altitude
404.308 km
Semi-major axis
6,783.36 km
Eccentricity
0.0001349
Inclination
53.1596°
RAAN
116.9995°
Arg. of periapsis
46.0848°
True anomaly
314.01638°
Mean anomaly
314.0275°
Eccentric anomaly
314.02194°
Mean motion
3.88486 °/min
BSTAR
-0.0081158
Orbital period
92.67 mins
Loading maneuver chart data...
Loading SW <> Apogee altitude chart data...
Loading historical data...
Loading historical data...
Loading historical data...
Loading historical data...
Loading historical data...
Loading historical data...
Loading historical data...

STARLINK-33807 Visibility forecast

Observer location: undefined°, undefined°

Span
Click to sort rows by Start time (UTC) header in descending order
Start Az.
Max El. time (UTC)
Max El. Az.
Max El.
End time (UTC)
End Az.
6 mins2025-05-10 01:32:15.449Z213.746° SW2025-05-10 01:35:15.449Z130.494° SE39.149°2025-05-10 01:38:15.449Z58.476° ENE
4 mins2025-05-10 08:02:15.449Z332.823° NNW2025-05-10 08:04:15.449Z40.246° NE32.922°2025-05-10 08:06:15.449Z98.754° ESE
|